This is the latest recevied weather packets stored in our database for station/object OE3FJB-25. If no packets are shown the sender has not sent any weather packets the latest 10 day(s).
| Time | Temp. | Humidity | Pressure | Rain* | Wind** | Luminosity | Snow |
|---|---|---|---|---|---|---|---|
| 1777775363 | 11.11° C | 85% | 1020.6 hPa | - | - | - | - |
| 1777774765 | 11.67° C | 85% | 1020.7 hPa | - | - | - | - |
| 1777774166 | 11.67° C | 86% | 1020.7 hPa | - | - | - | - |
| 1777772969 | 11.67° C | 88% | 1020.9 hPa | - | - | - | - |
| 1777762792 | 11.67° C | 86% | 1021.9 hPa | - | - | - | - |
| 1777760996 | 12.22° C | 82% | 1022.1 hPa | - | - | - | - |
| 1777760397 | 12.22° C | 82% | 1022.2 hPa | - | - | - | - |
| 1777759798 | 12.22° C | 82% | 1022.3 hPa | - | - | - | - |
| 1777759200 | 12.22° C | 81% | 1022.3 hPa | - | - | - | - |
| 1777758601 | 12.22° C | 79% | 1022.4 hPa | - | - | - | - |
| 1777757404 | 12.22° C | 77% | 1022.4 hPa | - | - | - | - |
| 1777756805 | 12.22° C | 76% | 1022.5 hPa | - | - | - | - |
| 1777755608 | 12.22° C | 74% | 1022.6 hPa | - | - | - | - |
| 1777755010 | 12.78° C | 72% | 1022.6 hPa | - | - | - | - |
| 1777753812 | 12.78° C | 68% | 1022.7 hPa | - | - | - | - |
| 1777753213 | 12.78° C | 66% | 1022.7 hPa | - | - | - | - |
| 1777752614 | 12.78° C | 63% | 1022.8 hPa | - | - | - | - |
| 1777752016 | 12.78° C | 62% | 1022.7 hPa | - | - | - | - |
| 1777751417 | 13.33° C | 60% | 1022.8 hPa | - | - | - | - |
| 1777750220 | 13.33° C | 56% | 1022.9 hPa | - | - | - | - |
| 1777749621 | 13.89° C | 52% | 1023 hPa | - | - | - | - |
| 1777749023 | 14.44° C | 48% | 1023 hPa | - | - | - | - |
| 1777748424 | 15° C | 46% | 1023 hPa | - | - | - | - |
| 1777747825 | 15.56° C | 44% | 1023.1 hPa | - | - | - | - |
| 1777747227 | 16.11° C | 42% | 1023 hPa | - | - | - | - |
* Rain since midnight (hover to see other rain measurements)
** Current wind speed in m/s (hover to see current wind gust speed)